Theta_e
313 313 312 311 310 308 305 303 303 303 305 305 305 306 307 308 307 314 319 313 312 307 315 318 315 313 312 315 317 319 322 324 323 323 324 325 326 325 325 325 324 326 328 336 344
312 313 313 312 310 308 305 303 303 304 305 306 306 306 307 308 308 314 316 311 308 310 320 314 314 316 314 313 315 318 321 322 322 323 323 324 324 325 326 325 325 324 324 329 340
312 313 313 313 310 308 305 304 303 304 305 306 307 307 307 308 314 317 315 310 309 310 317 316 314 313 314 315 315 315 317 317 318 320 322 322 323 323 325 327 324 323 323 324 334
312 313 313 312 309 307 305 304 304 305 306 306 306 307 307 308 318 315 314 309 309 310 318 315 316 316 317 316 315 316 316 316 316 316 318 319 320 321 322 324 325 323 323 323 324
309 311 312 312 310 306 304 304 304 305 305 305 305 307 307 315 316 316 314 309 309 316 316 315 315 315 316 316 316 316 315 316 316 316 316 316 317 318 320 322 324 323 323 323 323
308 309 310 312 310 306 304 304 305 305 305 306 308 308 308 313 315 314 314 315 315 315 315 315 315 315 315 316 316 315 315 315 315 315 316 316 317 317 318 320 323 324 323 322 323
307 307 310 311 309 305 305 305 305 306 308 308 308 308 313 313 313 314 313 313 313 314 314 314 314 315 315 316 316 316 316 316 316 315 315 315 317 317 317 318 321 323 323 322 322
307 307 311 311 308 305 306 307 308 309 310 308 307 309 314 314 314 314 313 313 313 314 314 315 315 315 315 315 315 316 316 316 316 316 315 314 314 315 317 317 318 320 322 323 323
310 309 310 310 308 306 306 308 310 310 310 310 315 317 317 315 314 312 313 313 313 313 313 314 315 315 315 316 316 316 316 316 316 315 316 315 315 316 315 316 318 318 319 321 324
309 309 310 310 307 307 308 310 314 313 317 317 317 316 317 314 314 313 313 313 313 313 314 314 315 317 317 317 316 316 316 316 316 316 316 316 316 316 316 316 317 319 319 319 321
308 310 310 308 307 307 312 316 316 318 318 314 312 313 313 313 313 313 313 313 313 314 316 315 316 319 319 318 317 318 318 317 316 317 315 315 316 316 316 317 318 318 319 320 320
309 309 308 308 308 311 313 316 311 311 312 313 314 313 313 313 313 313 313 313 314 315 316 317 318 318 318 318 318 317 317 317 316 316 316 316 317 316 316 317 317 319 320 319 321
308 309 307 311 313 314 315 314 311 311 313 315 313 313 313 312 313 313 314 314 315 316 316 316 316 316 317 317 318 318 317 318 316 317 317 317 318 318 317 316 316 318 318 320 320
309 309 307 307 313 314 314 311 310 311 317 317 315 314 312 313 314 314 313 314 315 316 316 317 316 316 317 318 317 318 317 317 316 318 320 318 320 318 318 318 317 318 319 319 321
309 308 307 310 312 314 309 308 310 315 326 313 313 312 312 312 313 315 315 315 315 316 316 317 316 317 317 318 318 317 318 317 317 319 320 319 318 317 316 317 317 318 319 319 322
308 308 306 312 312 311 309 310 315 322 321 313 313 313 313 314 316 316 316 316 316 316 316 317 316 317 317 316 317 317 318 318 317 318 322 320 318 318 318 317 317 318 319 319 321
308 308 308 310 310 308 310 315 320 323 314 314 312 313 313 317 317 316 316 316 317 319 320 319 318 318 318 317 316 318 320 321 321 323 323 318 319 318 317 316 317 319 321 319 320
307 311 312 310 309 309 312 318 321 316 314 312 312 312 315 316 316 315 316 316 317 318 320 322 322 318 317 318 319 318 319 321 320 319 321 320 322 318 318 317 316 317 319 320 321
309 315 316 311 309 311 315 318 315 313 312 311 312 313 314 315 315 315 315 316 317 317 319 318 318 317 316 316 317 319 320 319 321 321 322 319 317 318 318 317 317 318 319 320 320
311 315 316 311 310 312 316 313 314 312 311 312 313 313 314 314 315 314 315 316 317 317 317 317 318 314 315 315 315 315 317 323 322 321 319 317 317 318 318 317 317 318 319 321 321
313 315 313 311 311 313 316 312 311 310 311 312 313 314 314 315 314 314 314 315 316 316 315 315 315 314 314 314 316 317 321 319 321 321 321 321 319 319 319 319 321 318 320 323 323
313 316 313 311 314 313 314 312 311 312 312 312 312 314 314 314 316 315 314 314 314 313 315 314 314 318 314 313 314 315 318 321 325 323 320 321 323 318 320 321 321 321 321 322 322
313 314 313 311 313 313 313 313 312 313 312 312 312 313 313 315 318 316 315 313 313 312 313 312 315 316 316 317 316 317 316 317 319 321 322 323 323 319 319 321 322 322 321 322 324
313 315 312 311 311 313 313 314 312 311 311 311 312 313 314 314 314 315 314 313 312 313 313 312 310 314 316 315 316 317 316 319 319 323 321 321 320 321 319 321 321 321 322 322 322
311 313 312 312 313 313 313 312 312 311 310 310 313 313 313 316 315 314 314 314 314 314 313 311 315 314 315 315 315 316 316 316 318 318 321 320 322 320 320 320 319 320 321 324 325
311 310 310 310 312 314 312 312 310 310 310 312 313 313 313 316 315 315 315 314 315 315 313 310 314 314 316 315 317 317 317 317 317 317 318 319 318 319 319 318 318 319 323 326 332
310 310 310 311 312 312 312 310 309 309 311 312 313 315 315 314 313 312 313 314 316 316 310 307 311 316 316 318 320 320 319 319 318 317 318 320 319 320 320 321 320 322 322 327 337
Wind_Speed
26 25 25 24 25 24 22 18 15 12 12 14 16 17 16 17 14 9 10 4 9 5 7 5 8 8 12 15 21 22 16 19 26 27 24 25 23 33 27 28 34 26 26 7 16
27 26 26 26 26 25 21 17 13 11 11 12 14 16 15 17 16 13 12 8 3 2 7 6 6 7 12 16 20 18 17 25 23 23 22 26 29 30 29 21 20 16 24 16 17
28 27 27 27 27 25 21 15 12 9 10 11 13 14 13 16 17 8 14 7 4 3 3 8 7 8 13 17 19 22 21 23 28 31 29 28 29 34 26 24 22 19 25 33 20
30 30 29 28 28 25 20 14 11 8 10 12 12 14 12 11 8 7 9 6 6 6 6 8 10 13 13 14 18 18 25 27 28 32 32 26 33 29 30 28 20 20 24 31 34
32 31 31 30 29 25 19 13 10 9 11 13 14 14 12 9 20 7 9 6 7 4 8 9 11 15 15 16 20 18 19 23 25 28 30 32 28 27 33 33 26 20 22 28 31
33 32 31 31 28 24 16 12 12 10 12 15 15 12 10 16 6 6 3 5 2 7 11 12 16 16 19 19 18 21 24 25 25 24 25 26 28 28 37 33 31 28 28 18 20
33 32 31 30 27 19 12 12 10 11 14 14 14 10 11 20 6 6 5 8 9 11 14 14 15 17 18 19 21 22 19 19 20 22 25 25 25 28 37 35 33 31 30 25 21
34 33 32 31 25 15 11 10 12 11 13 10 5 3 10 8 13 16 13 11 12 12 12 14 15 19 20 20 24 21 21 20 20 21 25 26 26 27 35 35 35 35 33 30 27
34 33 32 29 21 12 9 12 12 10 7 8 3 4 12 6 8 10 11 16 13 14 15 16 14 18 19 16 16 16 17 23 25 23 20 25 29 26 34 35 36 36 35 35 29
35 34 31 25 16 10 11 10 13 11 8 7 7 8 10 10 3 3 10 14 17 20 20 16 19 14 15 15 15 18 18 17 17 21 19 18 20 22 28 32 35 34 41 37 36
36 36 29 20 12 8 10 9 9 3 8 17 24 19 19 13 9 16 13 15 18 23 16 19 15 15 21 18 19 23 20 23 19 21 21 19 21 25 22 28 29 34 39 39 41
35 34 24 13 8 8 8 6 12 13 19 21 14 11 9 8 10 11 12 17 21 19 17 14 16 21 18 24 24 22 20 24 23 22 20 19 25 24 22 24 26 28 33 39 36
35 31 15 9 6 8 6 8 16 16 11 12 3 8 4 6 12 20 6 14 14 16 18 19 20 17 20 17 18 22 19 22 24 23 23 22 24 23 22 27 34 32 39 35 41
36 28 11 10 8 11 8 16 16 13 5 6 14 4 8 15 20 7 9 12 16 19 20 18 17 18 15 22 20 23 22 23 22 21 18 20 18 22 22 24 24 33 35 37 33
35 23 10 12 12 10 17 17 14 3 3 5 2 3 11 16 17 8 6 8 14 16 14 22 21 22 24 23 16 18 16 18 20 19 20 28 13 18 19 24 25 25 33 43 31
35 21 8 9 13 14 19 14 6 4 3 7 5 17 14 18 11 14 9 10 15 18 21 24 27 22 22 22 21 20 15 21 20 18 17 27 19 21 20 25 24 24 38 39 33
34 17 8 8 13 19 15 10 6 6 17 10 21 19 19 11 11 14 16 13 10 12 14 19 21 20 20 21 18 13 17 10 7 9 16 18 11 18 23 25 29 24 35 35 29
34 10 4 9 18 15 9 9 11 19 16 20 20 22 21 7 13 18 14 16 16 11 13 11 7 6 1 16 10 15 12 10 11 11 12 5 9 9 26 23 31 32 35 35 34
28 8 6 8 14 9 13 9 10 15 15 18 21 16 17 21 17 18 21 17 5 6 6 7 7 12 16 7 2 7 10 19 19 17 15 17 26 17 19 18 23 24 31 42 45
19 6 4 13 11 9 9 4 11 13 15 17 17 15 21 20 17 17 14 10 12 7 9 6 12 13 16 9 17 20 19 5 8 7 15 16 11 8 13 9 17 22 23 41 47
13 9 1 20 11 14 5 10 13 15 13 12 17 17 17 16 16 18 7 17 13 12 11 4 5 9 14 9 19 12 11 12 9 8 7 13 6 9 16 14 16 16 26 24 42
11 6 9 20 7 14 9 11 12 13 14 14 11 14 16 18 18 19 7 11 11 10 8 7 5 11 22 27 24 21 17 16 5 6 12 10 5 10 16 17 12 23 30 23 43
14 19 6 11 5 7 12 13 9 14 12 13 12 16 18 16 7 11 17 20 14 2 4 2 4 7 10 2 14 9 17 18 14 15 19 12 8 6 12 15 14 13 20 32 12
9 7 17 19 15 15 14 13 14 15 13 13 18 17 11 16 14 13 28 8 10 17 29 13 3 11 12 20 16 11 14 13 11 9 14 11 11 15 17 16 19 25 28 19 19
9 7 9 7 13 14 16 13 16 17 16 21 16 16 20 17 22 19 19 23 24 11 5 3 5 12 21 25 23 23 20 20 21 18 14 16 5 7 11 14 15 23 34 27 24
11 8 13 26 19 19 14 13 15 18 18 14 16 20 18 16 16 25 21 22 13 7 4 3 5 12 23 22 18 22 21 20 22 21 17 17 11 13 8 14 19 22 30 36 14
13 13 12 13 16 14 14 18 18 19 9 22 19 16 18 19 32 36 33 32 18 7 6 2 3 5 7 14 9 2 9 18 17 18 15 15 12 10 5 7 15 14 21 25 32
Wind_Direction
358 355 353 348 344 340 336 328 325 320 319 321 322 324 323 323 323 303 285 230 270 295 40 17 249 259 244 243 237 240 243 249 249 256 262 265 268 274 270 232 244 225 250 219 134
357 354 350 346 344 340 336 327 321 310 308 316 321 323 317 320 316 288 227 275 304 119 27 327 288 256 253 246 235 234 247 246 253 265 268 270 274 274 275 260 237 228 240 241 151
356 353 349 346 344 340 336 328 319 304 304 311 321 321 314 318 314 254 210 273 328 316 309 308 298 276 273 260 242 238 245 257 264 268 268 278 284 291 283 276 227 221 242 253 191
354 352 349 348 345 339 335 328 322 306 302 305 319 320 312 310 309 182 210 312 321 336 321 296 276 264 263 266 265 249 257 259 265 268 277 280 286 289 288 284 273 237 220 245 249
352 348 347 346 344 340 335 330 324 309 304 306 311 312 315 265 266 231 227 299 315 312 301 297 300 296 287 295 295 266 270 268 267 270 271 272 274 277 282 284 289 260 262 229 251
351 348 344 343 342 339 336 332 326 320 313 312 310 306 291 270 211 272 216 274 274 277 279 283 292 297 294 290 283 281 286 286 281 277 265 265 264 264 266 273 279 280 279 255 250
350 347 344 342 341 340 337 333 335 333 322 314 306 292 261 249 259 256 246 252 268 277 283 285 295 299 292 290 278 280 268 269 264 261 267 269 265 250 256 263 268 272 273 259 261
350 347 344 341 340 341 341 340 333 335 333 324 338 275 265 273 280 263 247 262 271 262 273 283 289 285 278 280 281 271 271 268 262 256 246 244 252 254 251 247 255 260 265 261 248
351 349 344 340 340 343 345 335 329 326 337 330 351 218 280 287 255 262 239 260 273 273 274 269 278 274 280 260 259 248 252 256 260 253 243 238 239 244 249 249 238 249 257 256 249
350 348 344 340 341 347 343 327 321 314 345 331 272 261 250 317 322 258 253 266 275 274 285 258 243 260 246 241 251 260 256 259 285 290 298 303 285 248 242 239 243 237 236 245 249
350 349 345 342 347 3 3 327 344 247 247 285 289 278 288 310 279 263 274 258 265 264 269 258 237 240 259 263 293 291 284 280 270 254 270 283 291 286 280 236 233 229 242 229 229
350 351 349 352 11 16 359 333 352 317 310 300 263 274 278 293 288 278 272 255 261 275 269 263 254 261 251 287 284 280 285 281 279 278 276 255 248 263 269 270 260 236 234 241 219
349 351 356 5 10 341 339 333 331 327 298 296 245 281 315 311 279 278 317 301 288 282 279 277 277 292 277 254 268 270 264 272 285 290 289 279 272 261 268 260 264 254 243 238 233
349 349 355 357 352 331 360 327 327 327 278 216 204 166 290 247 265 241 278 278 280 283 286 283 287 274 288 288 262 246 250 265 275 283 273 281 274 275 273 245 242 254 231 241 225
350 351 358 7 4 352 331 326 319 292 286 23 25 261 264 266 295 315 244 258 268 288 312 283 284 282 274 266 285 285 293 283 282 269 279 263 257 265 247 243 258 235 254 226 229
348 348 354 350 327 322 324 320 321 251 280 332 357 335 321 301 306 332 315 299 283 283 271 275 277 273 264 262 252 268 267 262 267 265 259 256 258 258 250 258 242 223 240 221 221
349 341 358 14 335 329 326 315 263 259 4 10 337 332 309 307 341 340 329 305 295 296 282 288 288 267 248 260 259 300 248 266 256 233 252 258 275 270 269 242 257 219 229 220 217
348 353 4 7 327 323 323 276 275 356 355 344 334 308 289 7 358 335 326 316 303 292 296 292 309 360 50 246 262 233 264 244 264 264 287 209 225 237 241 245 243 245 226 208 208
351 360 352 348 335 332 300 312 2 341 338 335 324 319 330 344 353 345 335 300 332 341 310 317 275 337 309 282 128 289 264 261 276 272 267 271 276 231 292 234 234 252 241 211 208
353 344 265 330 317 316 292 316 322 354 344 332 322 340 332 318 343 344 320 307 339 1 349 338 286 282 291 310 256 266 269 260 217 272 268 266 313 305 299 268 250 239 255 216 198
353 296 332 347 312 283 296 356 337 339 335 326 311 311 311 334 329 316 278 301 9 345 327 292 223 282 311 261 266 277 271 236 259 249 272 290 284 308 330 316 327 275 283 201 180
348 322 339 337 319 0 350 339 302 310 310 319 310 312 320 325 319 310 294 312 23 335 315 326 288 286 278 275 266 256 247 253 233 263 257 275 251 340 332 326 301 308 249 276 184
325 311 339 346 0 352 328 329 341 323 326 333 324 316 310 322 328 288 303 307 335 282 249 247 247 297 299 216 29 283 263 244 256 267 268 272 283 321 322 316 309 314 248 260 213
314 318 335 322 0 353 336 315 319 335 339 331 308 297 318 304 313 303 298 308 287 285 281 217 240 239 262 277 293 284 296 290 281 264 272 270 312 320 325 338 326 312 323 266 238
343 342 353 306 327 317 299 305 320 328 334 324 316 318 332 320 310 293 304 303 307 319 116 162 264 249 259 268 271 269 261 261 262 262 270 284 213 257 294 312 303 301 306 308 265
348 337 321 304 314 293 306 344 325 323 325 330 315 305 312 306 292 299 306 298 296 251 164 186 262 290 291 280 282 263 251 248 251 255 264 265 262 229 290 309 296 291 321 319 254
336 322 307 293 307 325 335 323 316 324 323 308 320 337 320 314 315 302 288 274 255 183 178 189 282 301 281 322 330 327 284 263 255 252 251 251 270 151 239 327 292 326 317 301 122